H-2A DEB (43674 NORAD) Tracking and Keplerian Element Data

This shows tracking and keplerian element data for the satellite.

Feedback or suggestion? Click here.




ElementValue
Catalog43674
NameH-2A DEB
Epoch Orbit441
Epoch Day331.94632472
Epoch Year2018
RAAN82.2078
Inclination97.8567
Eccentricity0.0014734
Argument of Perigee190.7752
Mean Anonmoly169.3149
Mean Motion14.87730831
Decay Rate1.377E-05
L11 43674U 18084D 18331.94632472 .00001377 00000-0 15685-3 0 9994
L22 43674 97.8567 82.2078 0014734 190.7752 169.3149 14.87730831 4419



Live tracking and technical data element details for H-2A DEB (NORAD 43674). H-2A DEB can be tracked NOW for your location showing map with azimuth and elevation plus other details from your city location.







IsCatalogInMostPopularTable: catalog: 43674, numindb: 376
Update: records affected: 1



GetName: 43674 H-2A DEB

Hit Count: updated at: Thu, 15 May 2025 18:47:30 GMT